Wetterdaten: Dienstag, 16.11.2010
Datum Zeit Temp. A. Feuchte A. Luftdruck Regen Wind Richtung Richtung Sonnenschein UV Solar Windben
16.11.2010 00:00 5,9 C 86 % 1018,0 hPa 0,0 mm 0,0 km/h (0 Bft) N 0 0 min 0 UV-I 0 W/m 0,0 km/h (0 Bft)
16.11.2010 00:10 5,8 C 86 % 1018,2 hPa 0,0 mm 0,0 km/h (0 Bft) N 0 0 min 0 UV-I 0 W/m 0,0 km/h (0 Bft)
16.11.2010 00:20 5,8 C 86 % 1018,0 hPa 0,0 mm 0,0 km/h (0 Bft) N 0 0 min 0 UV-I 0 W/m 0,0 km/h (0 Bft)
16.11.2010 00:30 5,7 C 87 % 1018,2 hPa 0,0 mm 0,0 km/h (0 Bft) N 0 0 min 0 UV-I 0 W/m 0,0 km/h (0 Bft)
16.11.2010 00:40 5,7 C 87 % 1018,3 hPa 0,0 mm 0,0 km/h (0 Bft) N 0 0 min 0 UV-I 0 W/m 0,0 km/h (0 Bft)
16.11.2010 00:50 5,6 C 86 % 1018,3 hPa 0,0 mm 0,0 km/h (0 Bft) N 0 0 min 0 UV-I 0 W/m 0,0 km/h (0 Bft)
16.11.2010 01:00 5,5 C 86 % 1018,4 hPa 0,0 mm 0,0 km/h (0 Bft) N 0 0 min 0 UV-I 0 W/m 0,0 km/h (0 Bft)
16.11.2010 01:10 5,4 C 87 % 1018,6 hPa 0,0 mm 0,0 km/h (0 Bft) W-NW 292 0 min 0 UV-I 0 W/m 1,6 km/h (1 Bft)
16.11.2010 01:20 5,3 C 87 % 1018,5 hPa 0,0 mm 0,0 km/h (0 Bft) W-NW 292 0 min 0 UV-I 0 W/m 1,6 km/h (1 Bft)
16.11.2010 01:30 5,2 C 87 % 1018,5 hPa 0,0 mm 0,0 km/h (0 Bft) N 0 0 min 0 UV-I 0 W/m 0,0 km/h (0 Bft)
16.11.2010 01:40 5,2 C 87 % 1018,3 hPa 0,0 mm 0,0 km/h (0 Bft) N 0 0 min 0 UV-I 0 W/m 0,0 km/h (0 Bft)
16.11.2010 01:50 5,1 C 87 % 1018,2 hPa 0,0 mm 0,0 km/h (0 Bft) N 0 0 min 0 UV-I 0 W/m 0,0 km/h (0 Bft)
16.11.2010 02:00 5,1 C 88 % 1018,3 hPa 0,0 mm 0,0 km/h (0 Bft) N 0 0 min 0 UV-I 0 W/m 0,0 km/h (0 Bft)
16.11.2010 02:10 5,0 C 87 % 1018,4 hPa 0,0 mm 0,0 km/h (0 Bft) W-NW 292 0 min 0 UV-I 0 W/m 1,6 km/h (1 Bft)
16.11.2010 02:20 4,9 C 88 % 1018,4 hPa 0,0 mm 0,0 km/h (0 Bft) N 0 0 min 0 UV-I 0 W/m 0,0 km/h (0 Bft)
16.11.2010 02:30 4,9 C 88 % 1018,4 hPa 0,0 mm 0,0 km/h (0 Bft) N 0 0 min 0 UV-I 0 W/m 0,0 km/h (0 Bft)
16.11.2010 02:40 4,8 C 88 % 1018,5 hPa 0,0 mm 0,0 km/h (0 Bft) N 0 0 min 0 UV-I 0 W/m 0,0 km/h (0 Bft)
16.11.2010 02:50 4,7 C 88 % 1018,6 hPa 0,0 mm 0,0 km/h (0 Bft) N 0 0 min 0 UV-I 0 W/m 0,0 km/h (0 Bft)
16.11.2010 03:00 4,6 C 88 % 1018,8 hPa 0,0 mm 0,0 km/h (0 Bft) N 0 0 min 0 UV-I 0 W/m 0,0 km/h (0 Bft)
16.11.2010 03:10 4,5 C 88 % 1018,9 hPa 0,0 mm 0,0 km/h (0 Bft) N 0 0 min 0 UV-I 0 W/m 0,0 km/h (0 Bft)
16.11.2010 03:20 4,4 C 88 % 1019,1 hPa 0,0 mm 0,0 km/h (0 Bft) N 0 0 min 0 UV-I 0 W/m 0,0 km/h (0 Bft)
16.11.2010 03:30 4,3 C 88 % 1019,2 hPa 0,0 mm 0,0 km/h (0 Bft) N 0 0 min 0 UV-I 0 W/m 0,0 km/h (0 Bft)
16.11.2010 03:40 4,3 C 88 % 1019,3 hPa 0,0 mm 0,0 km/h (0 Bft) N 0 0 min 0 UV-I 0 W/m 0,0 km/h (0 Bft)
16.11.2010 03:50 4,2 C 88 % 1019,1 hPa 0,0 mm 0,0 km/h (0 Bft) N 0 0 min 0 UV-I 0 W/m 0,0 km/h (0 Bft)
16.11.2010 04:00 4,3 C 88 % 1019,1 hPa 0,0 mm 0,0 km/h (0 Bft) N 0 0 min 0 UV-I 0 W/m 0,0 km/h (0 Bft)
16.11.2010 04:10 4,3 C 88 % 1019,3 hPa 0,0 mm 0,0 km/h (0 Bft) W-NW 292 0 min 0 UV-I 0 W/m 1,6 km/h (1 Bft)
16.11.2010 04:20 4,3 C 88 % 1019,3 hPa 0,0 mm 0,0 km/h (0 Bft) N 0 0 min 0 UV-I 0 W/m 0,0 km/h (0 Bft)
16.11.2010 04:30 4,3 C 89 % 1019,4 hPa 0,0 mm 0,0 km/h (0 Bft) N 0 0 min 0 UV-I 0 W/m 0,0 km/h (0 Bft)
16.11.2010 04:40 4,4 C 89 % 1019,3 hPa 0,0 mm 0,0 km/h (0 Bft) N 0 0 min 0 UV-I 0 W/m 0,0 km/h (0 Bft)
16.11.2010 04:50 4,4 C 89 % 1019,3 hPa 0,0 mm 0,0 km/h (0 Bft) N 0 0 min 0 UV-I 0 W/m 0,0 km/h (0 Bft)
16.11.2010 05:00 4,4 C 89 % 1019,4 hPa 0,0 mm 0,0 km/h (0 Bft) N 0 0 min 0 UV-I 0 W/m 0,0 km/h (0 Bft)
16.11.2010 05:10 4,3 C 89 % 1019,5 hPa 0,0 mm 0,0 km/h (0 Bft) N 0 0 min 0 UV-I 0 W/m 0,0 km/h (0 Bft)
16.11.2010 05:20 4,2 C 89 % 1019,5 hPa 0,0 mm 0,0 km/h (0 Bft) N 0 0 min 0 UV-I 0 W/m 0,0 km/h (0 Bft)
16.11.2010 05:30 4,1 C 89 % 1019,6 hPa 0,0 mm 0,0 km/h (0 Bft) N 0 0 min 0 UV-I 0 W/m 0,0 km/h (0 Bft)
16.11.2010 05:40 3,9 C 88 % 1019,6 hPa 0,0 mm 0,0 km/h (0 Bft) N 0 0 min 0 UV-I 0 W/m 0,0 km/h (0 Bft)
16.11.2010 05:50 3,8 C 88 % 1019,8 hPa 0,0 mm 0,0 km/h (0 Bft) N 0 0 min 0 UV-I 0 W/m 0,0 km/h (0 Bft)
16.11.2010 06:00 3,6 C 88 % 1019,7 hPa 0,0 mm 0,0 km/h (0 Bft) N 0 0 min 0 UV-I 0 W/m 0,0 km/h (0 Bft)
16.11.2010 06:10 3,5 C 88 % 1019,7 hPa 0,0 mm 0,0 km/h (0 Bft) N 0 0 min 0 UV-I 0 W/m 0,0 km/h (0 Bft)
16.11.2010 06:20 3,3 C 88 % 1019,7 hPa 0,0 mm 0,0 km/h (0 Bft) N 0 0 min 0 UV-I 0 W/m 0,0 km/h (0 Bft)
16.11.2010 06:30 3,2 C 88 % 1019,7 hPa 0,0 mm 0,0 km/h (0 Bft) W-NW 292 0 min 0 UV-I 0 W/m 1,6 km/h (1 Bft)
16.11.2010 06:40 3,1 C 88 % 1019,7 hPa 0,0 mm 0,0 km/h (0 Bft) N 0 0 min 0 UV-I 0 W/m 0,0 km/h (0 Bft)
16.11.2010 06:50 3,0 C 89 % 1019,6 hPa 0,0 mm 0,0 km/h (0 Bft) N 0 0 min 0 UV-I 0 W/m 0,0 km/h (0 Bft)
16.11.2010 07:00 3,0 C 89 % 1019,6 hPa 0,0 mm 0,0 km/h (0 Bft) N 0 0 min 0 UV-I 0 W/m 0,0 km/h (0 Bft)
16.11.2010 07:10 2,9 C 89 % 1019,6 hPa 0,0 mm 0,0 km/h (0 Bft) N 0 0 min 0 UV-I 0 W/m 0,0 km/h (0 Bft)
16.11.2010 07:20 2,9 C 89 % 1019,8 hPa 0,0 mm 0,0 km/h (0 Bft) N 0 0 min 0 UV-I 0 W/m 0,0 km/h (0 Bft)
16.11.2010 07:30 2,9 C 89 % 1019,9 hPa 0,0 mm 0,0 km/h (0 Bft) W-NW 292 0 min 0 UV-I 0 W/m 1,6 km/h (1 Bft)
16.11.2010 07:40 2,9 C 89 % 1020,0 hPa 0,0 mm 0,0 km/h (0 Bft) N 0 0 min 0 UV-I 0 W/m 0,0 km/h (0 Bft)
16.11.2010 07:50 2,8 C 89 % 1020,1 hPa 0,0 mm 0,0 km/h (0 Bft) N 0 0 min 0 UV-I 0 W/m 0,0 km/h (0 Bft)
16.11.2010 08:00 2,8 C 89 % 1020,4 hPa 0,0 mm 0,0 km/h (0 Bft) W-NW 292 0 min 0 UV-I 2 W/m 0,0 km/h (0 Bft)
16.11.2010 08:10 2,8 C 89 % 1020,5 hPa 0,0 mm 0,0 km/h (0 Bft) N 0 0 min 0 UV-I 9 W/m 0,0 km/h (0 Bft)
16.11.2010 08:20 2,8 C 89 % 1020,7 hPa 0,0 mm 0,0 km/h (0 Bft) N 0 0 min 0 UV-I 12 W/m 0,0 km/h (0 Bft)
16.11.2010 08:30 2,8 C 90 % 1020,7 hPa 0,0 mm 0,0 km/h (0 Bft) N 0 0 min 0 UV-I 19 W/m 0,0 km/h (0 Bft)
16.11.2010 08:40 2,8 C 90 % 1020,8 hPa 0,0 mm 0,0 km/h (0 Bft) W-NW 292 0 min 0 UV-I 25 W/m 3,2 km/h (1 Bft)
16.11.2010 08:50 2,9 C 90 % 1021,1 hPa 0,0 mm 0,0 km/h (0 Bft) W-NW 292 0 min 0 UV-I 30 W/m 4,8 km/h (1 Bft)
16.11.2010 09:00 3,1 C 90 % 1021,2 hPa 0,0 mm 0,0 km/h (0 Bft) W-NW 292 0 min 0 UV-I 32 W/m 1,6 km/h (1 Bft)
16.11.2010 09:10 3,2 C 90 % 1021,4 hPa 0,0 mm 0,0 km/h (0 Bft) N 0 0 min 0 UV-I 39 W/m 0,0 km/h (0 Bft)
16.11.2010 09:20 3,3 C 90 % 1021,6 hPa 0,0 mm 0,0 km/h (0 Bft) N 0 0 min 0 UV-I 49 W/m 0,0 km/h (0 Bft)
16.11.2010 09:30 3,4 C 91 % 1021,5 hPa 0,0 mm 0,0 km/h (0 Bft) N 0 0 min 0 UV-I 56 W/m 0,0 km/h (0 Bft)
16.11.2010 09:40 3,6 C 91 % 1021,4 hPa 0,0 mm 0,0 km/h (0 Bft) N 0 0 min 0 UV-I 67 W/m 0,0 km/h (0 Bft)
16.11.2010 09:50 3,8 C 91 % 1021,5 hPa 0,0 mm 0,0 km/h (0 Bft) W-NW 292 0 min 0 UV-I 79 W/m 1,6 km/h (1 Bft)
16.11.2010 10:00 3,9 C 91 % 1021,7 hPa 0,0 mm 0,0 km/h (0 Bft) W-NW 292 0 min 0 UV-I 72 W/m 1,6 km/h (1 Bft)
16.11.2010 10:10 4,1 C 91 % 1021,6 hPa 0,0 mm 0,0 km/h (0 Bft) W-NW 292 0 min 0 UV-I 69 W/m 3,2 km/h (1 Bft)
16.11.2010 10:20 4,2 C 91 % 1021,6 hPa 0,0 mm 0,0 km/h (0 Bft) W-NW 292 0 min 0 UV-I 70 W/m 4,8 km/h (1 Bft)
16.11.2010 10:30 4,3 C 91 % 1021,8 hPa 0,0 mm 0,0 km/h (0 Bft) W-NW 292 0 min 0 UV-I 72 W/m 1,6 km/h (1 Bft)
16.11.2010 10:40 4,3 C 91 % 1021,9 hPa 0,0 mm 0,0 km/h (0 Bft) W-NW 292 0 min 0 UV-I 60 W/m 1,6 km/h (1 Bft)
16.11.2010 10:50 4,4 C 91 % 1021,9 hPa 0,0 mm 0,0 km/h (0 Bft) W-NW 292 0 min 0 UV-I 46 W/m 3,2 km/h (1 Bft)
16.11.2010 11:00 4,4 C 91 % 1021,9 hPa 0,0 mm 0,0 km/h (0 Bft) W-NW 292 0 min 0 UV-I 44 W/m 3,2 km/h (1 Bft)
16.11.2010 11:10 4,5 C 91 % 1021,9 hPa 0,0 mm 0,0 km/h (0 Bft) W-NW 292 0 min 0 UV-I 62 W/m 4,8 km/h (1 Bft)
16.11.2010 11:20 4,6 C 91 % 1021,9 hPa 0,0 mm 1,6 km/h (1 Bft) W-NW 292 0 min 0 UV-I 81 W/m 4,8 km/h (1 Bft)
16.11.2010 11:30 4,7 C 91 % 1021,9 hPa 0,0 mm 0,0 km/h (0 Bft) W-NW 292 0 min 1 UV-I 93 W/m 1,6 km/h (1 Bft)
16.11.2010 11:40 4,8 C 91 % 1021,8 hPa 0,0 mm 0,0 km/h (0 Bft) W-NW 292 0 min 1 UV-I 113 W/m 3,2 km/h (1 Bft)
16.11.2010 11:50 5,0 C 97 % 1021,7 hPa 0,0 mm 0,0 km/h (0 Bft) W-NW 292 0 min 1 UV-I 116 W/m 4,8 km/h (1 Bft)
16.11.2010 12:00 5,1 C 92 % 1021,5 hPa 0,0 mm 0,0 km/h (0 Bft) W-NW 292 0 min 1 UV-I 107 W/m 1,6 km/h (1 Bft)
16.11.2010 12:10 5,3 C 92 % 1021,5 hPa 0,0 mm 0,0 km/h (0 Bft) W-NW 292 0 min 1 UV-I 125 W/m 1,6 km/h (1 Bft)
16.11.2010 12:20 5,4 C 92 % 1021,5 hPa 0,0 mm 0,0 km/h (0 Bft) W-NW 292 10 min 1 UV-I 197 W/m 4,8 km/h (1 Bft)
16.11.2010 12:30 5,6 C 92 % 1021,4 hPa 0,0 mm 0,0 km/h (0 Bft) W-NW 292 10 min 1 UV-I 227 W/m 4,8 km/h (1 Bft)
16.11.2010 12:40 5,7 C 92 % 1021,3 hPa 0,0 mm 1,6 km/h (1 Bft) W-NW 292 0 min 1 UV-I 183 W/m 6,4 km/h (2 Bft)
16.11.2010 12:50 5,9 C 92 % 1021,4 hPa 0,0 mm 0,0 km/h (0 Bft) W-NW 292 0 min 1 UV-I 181 W/m 3,2 km/h (1 Bft)
16.11.2010 13:00 6,0 C 92 % 1021,4 hPa 0,0 mm 0,0 km/h (0 Bft) W-NW 292 0 min 1 UV-I 118 W/m 1,6 km/h (1 Bft)
16.11.2010 13:10 6,1 C 92 % 1021,3 hPa 0,0 mm 0,0 km/h (0 Bft) W-NW 292 0 min 1 UV-I 156 W/m 4,8 km/h (1 Bft)
16.11.2010 13:20 6,1 C 91 % 1021,5 hPa 0,0 mm 1,6 km/h (1 Bft) W-NW 292 0 min 1 UV-I 127 W/m 6,4 km/h (2 Bft)
16.11.2010 13:30 6,1 C 92 % 1021,4 hPa 0,0 mm 0,0 km/h (0 Bft) W-NW 292 0 min 1 UV-I 118 W/m 4,8 km/h (1 Bft)
16.11.2010 13:40 6,1 C 92 % 1021,4 hPa 0,0 mm 0,0 km/h (0 Bft) W-NW 292 0 min 0 UV-I 62 W/m 4,8 km/h (1 Bft)
16.11.2010 13:50 6,2 C 92 % 1021,3 hPa 0,0 mm 0,0 km/h (0 Bft) W-NW 292 0 min 0 UV-I 32 W/m 6,4 km/h (2 Bft)
16.11.2010 14:00 6,2 C 92 % 1021,4 hPa 0,0 mm 0,0 km/h (0 Bft) W-NW 292 0 min 0 UV-I 53 W/m 4,8 km/h (1 Bft)
16.11.2010 14:10 6,2 C 92 % 1021,3 hPa 0,0 mm 0,0 km/h (0 Bft) W-NW 292 0 min 0 UV-I 49 W/m 1,6 km/h (1 Bft)
16.11.2010 14:20 6,3 C 92 % 1021,2 hPa 0,0 mm 0,0 km/h (0 Bft) W-NW 292 0 min 0 UV-I 25 W/m 4,8 km/h (1 Bft)
16.11.2010 14:30 6,3 C 91 % 1021,2 hPa 0,0 mm 0,0 km/h (0 Bft) W-NW 292 0 min 0 UV-I 21 W/m 1,6 km/h (1 Bft)
16.11.2010 14:40 6,3 C 91 % 1021,3 hPa 0,0 mm 0,0 km/h (0 Bft) W-NW 292 0 min 0 UV-I 35 W/m 1,6 km/h (1 Bft)
16.11.2010 14:50 6,3 C 91 % 1021,3 hPa 0,0 mm 0,0 km/h (0 Bft) W-NW 292 0 min 0 UV-I 28 W/m 1,6 km/h (1 Bft)
16.11.2010 15:00 6,4 C 91 % 1021,2 hPa 0,0 mm 0,0 km/h (0 Bft) W-NW 292 0 min 0 UV-I 26 W/m 3,2 km/h (1 Bft)
16.11.2010 15:10 6,4 C 91 % 1021,1 hPa 0,0 mm 0,0 km/h (0 Bft) W-NW 292 0 min 0 UV-I 32 W/m 1,6 km/h (1 Bft)
16.11.2010 15:20 6,4 C 91 % 1021,1 hPa 0,0 mm 0,0 km/h (0 Bft) W-NW 292 0 min 0 UV-I 39 W/m 3,2 km/h (1 Bft)
16.11.2010 15:30 6,4 C 91 % 1021,2 hPa 0,0 mm 0,0 km/h (0 Bft) N 0 0 min 0 UV-I 30 W/m 0,0 km/h (0 Bft)
16.11.2010 15:40 6,4 C 91 % 1021,1 hPa 0,0 mm 0,0 km/h (0 Bft) W-NW 292 0 min 0 UV-I 16 W/m 1,6 km/h (1 Bft)
16.11.2010 15:50 6,4 C 91 % 1021,1 hPa 0,0 mm 0,0 km/h (0 Bft) W-NW 292 0 min 0 UV-I 16 W/m 1,6 km/h (1 Bft)
16.11.2010 16:00 6,5 C 91 % 1021,1 hPa 0,0 mm 0,0 km/h (0 Bft) W-NW 288 0 min 0 UV-I 5 W/m 0,0 km/h (0 Bft)
16.11.2010 16:10 6,5 C 91 % 1021,0 hPa 0,0 mm 1,6 km/h (1 Bft) NW 315 0 min 0 UV-I 5 W/m 6,4 km/h (2 Bft)
16.11.2010 16:20 6,5 C 91 % 1021,0 hPa 0,0 mm 1,6 km/h (1 Bft) N-NW 337 0 min 0 UV-I 0 W/m 8,0 km/h (2 Bft)
16.11.2010 16:30 6,5 C 91 % 1021,0 hPa 0,0 mm 0,0 km/h (0 Bft) N 360 0 min 0 UV-I 0 W/m 8,0 km/h (2 Bft)
16.11.2010 16:40 6,5 C 91 % 1021,1 hPa 0,0 mm 1,6 km/h (1 Bft) N 360 0 min 0 UV-I 0 W/m 9,7 km/h (2 Bft)
16.11.2010 16:50 6,5 C 91 % 1021,2 hPa 0,0 mm 1,6 km/h (1 Bft) N 360 0 min 0 UV-I 0 W/m 6,4 km/h (2 Bft)
16.11.2010 17:00 6,4 C 91 % 1021,1 hPa 0,0 mm 1,6 km/h (1 Bft) N 360 0 min 0 UV-I 0 W/m 8,0 km/h (2 Bft)
16.11.2010 17:10 6,4 C 90 % 1021,1 hPa 0,0 mm 1,6 km/h (1 Bft) N 360 0 min 0 UV-I 0 W/m 6,4 km/h (2 Bft)
16.11.2010 17:20 6,4 C 90 % 1021,1 hPa 0,0 mm 1,6 km/h (1 Bft) N 360 0 min 0 UV-I 0 W/m 4,8 km/h (1 Bft)
16.11.2010 17:30 6,4 C 90 % 1021,1 hPa 0,0 mm 1,6 km/h (1 Bft) N 360 0 min 0 UV-I 0 W/m 8,0 km/h (2 Bft)
16.11.2010 17:40 6,4 C 90 % 1021,2 hPa 0,0 mm 1,6 km/h (1 Bft) N 360 0 min 0 UV-I 0 W/m 6,4 km/h (2 Bft)
16.11.2010 17:50 6,4 C 90 % 1021,2 hPa 0,0 mm 3,2 km/h (1 Bft) N-NO 22 0 min 0 UV-I 0 W/m 8,0 km/h (2 Bft)
16.11.2010 18:00 6,3 C 90 % 1021,2 hPa 0,0 mm 1,6 km/h (1 Bft) N-NO 22 0 min 0 UV-I 0 W/m 9,7 km/h (2 Bft)
16.11.2010 18:10 6,4 C 90 % 1021,2 hPa 0,0 mm 1,6 km/h (1 Bft) N 360 0 min 0 UV-I 0 W/m 8,0 km/h (2 Bft)
16.11.2010 18:20 6,4 C 89 % 1021,2 hPa 0,0 mm 3,2 km/h (1 Bft) N 360 0 min 0 UV-I 0 W/m 8,0 km/h (2 Bft)
16.11.2010 18:30 6,3 C 90 % 1021,2 hPa 0,0 mm 1,6 km/h (1 Bft) N 360 0 min 0 UV-I 0 W/m 8,0 km/h (2 Bft)
16.11.2010 18:40 6,3 C 89 % 1021,2 hPa 0,0 mm 1,6 km/h (1 Bft) N 360 0 min 0 UV-I 0 W/m 6,4 km/h (2 Bft)
16.11.2010 18:50 6,4 C 89 % 1021,3 hPa 0,0 mm 1,6 km/h (1 Bft) N 360 0 min 0 UV-I 0 W/m 9,7 km/h (2 Bft)
16.11.2010 19:00 6,3 C 89 % 1021,3 hPa 0,0 mm 3,2 km/h (1 Bft) N 360 0 min 0 UV-I 0 W/m 8,0 km/h (2 Bft)
16.11.2010 19:10 6,3 C 89 % 1021,2 hPa 0,0 mm 1,6 km/h (1 Bft) N 360 0 min 0 UV-I 0 W/m 6,4 km/h (2 Bft)
16.11.2010 19:20 6,3 C 89 % 1021,2 hPa 0,0 mm 1,6 km/h (1 Bft) N 360 0 min 0 UV-I 0 W/m 9,7 km/h (2 Bft)
16.11.2010 19:30 6,3 C 89 % 1021,2 hPa 0,0 mm 0,0 km/h (0 Bft) N-NO 22 0 min 0 UV-I 0 W/m 4,8 km/h (1 Bft)
16.11.2010 19:40 6,3 C 88 % 1021,1 hPa 0,0 mm 0,0 km/h (0 Bft) N-NO 22 0 min 0 UV-I 0 W/m 8,0 km/h (2 Bft)
16.11.2010 19:50 6,1 C 88 % 1021,0 hPa 0,0 mm 1,6 km/h (1 Bft) N-NO 22 0 min 0 UV-I 0 W/m 4,8 km/h (1 Bft)
16.11.2010 20:00 6,0 C 88 % 1020,9 hPa 0,0 mm 0,0 km/h (0 Bft) N-NO 22 0 min 0 UV-I 0 W/m 4,8 km/h (1 Bft)
16.11.2010 20:10 5,8 C 88 % 1020,8 hPa 0,0 mm 1,6 km/h (1 Bft) N-NO 22 0 min 0 UV-I 0 W/m 6,4 km/h (2 Bft)
16.11.2010 20:20 5,7 C 88 % 1020,6 hPa 0,0 mm 0,0 km/h (0 Bft) N-NO 22 0 min 0 UV-I 0 W/m 4,8 km/h (1 Bft)
16.11.2010 20:30 5,6 C 88 % 1020,6 hPa 0,0 mm 1,6 km/h (1 Bft) N-NO 22 0 min 0 UV-I 0 W/m 6,4 km/h (2 Bft)
16.11.2010 20:40 5,4 C 88 % 1020,6 hPa 0,0 mm 0,0 km/h (0 Bft) N-NO 22 0 min 0 UV-I 0 W/m 4,8 km/h (1 Bft)
16.11.2010 20:50 5,3 C 88 % 1020,5 hPa 0,0 mm 0,0 km/h (0 Bft) N-NO 22 0 min 0 UV-I 0 W/m 6,4 km/h (2 Bft)
16.11.2010 21:00 5,3 C 88 % 1020,5 hPa 0,0 mm 0,0 km/h (0 Bft) N-NO 22 0 min 0 UV-I 0 W/m 4,8 km/h (1 Bft)
16.11.2010 21:10 5,3 C 88 % 1020,4 hPa 0,0 mm 0,0 km/h (0 Bft) N-NO 22 0 min 0 UV-I 0 W/m 4,8 km/h (1 Bft)
16.11.2010 21:20 5,3 C 89 % 1020,5 hPa 0,0 mm 0,0 km/h (0 Bft) N-NO 22 0 min 0 UV-I 0 W/m 4,8 km/h (1 Bft)
16.11.2010 21:30 5,3 C 89 % 1020,5 hPa 0,0 mm 1,6 km/h (1 Bft) NO 45 0 min 0 UV-I 0 W/m 6,4 km/h (2 Bft)
16.11.2010 21:40 5,3 C 89 % 1020,4 hPa 0,0 mm 0,0 km/h (0 Bft) NO 45 0 min 0 UV-I 0 W/m 3,2 km/h (1 Bft)
16.11.2010 21:50 5,3 C 89 % 1020,2 hPa 0,0 mm 0,0 km/h (0 Bft) NO 45 0 min 0 UV-I 0 W/m 3,2 km/h (1 Bft)
16.11.2010 22:00 5,3 C 89 % 1020,2 hPa 0,0 mm 0,0 km/h (0 Bft) NO 45 0 min 0 UV-I 0 W/m 4,8 km/h (1 Bft)
16.11.2010 22:10 5,3 C 89 % 1020,0 hPa 0,0 mm 1,6 km/h (1 Bft) NO 45 0 min 0 UV-I 0 W/m 4,8 km/h (1 Bft)
16.11.2010 22:20 5,3 C 89 % 1019,9 hPa 0,0 mm 0,0 km/h (0 Bft) NO 45 0 min 0 UV-I 0 W/m 4,8 km/h (1 Bft)
16.11.2010 22:30 5,3 C 89 % 1019,9 hPa 0,0 mm 0,0 km/h (0 Bft) NO 45 0 min 0 UV-I 0 W/m 3,2 km/h (1 Bft)
16.11.2010 22:40 5,3 C 89 % 1020,0 hPa 0,0 mm 3,2 km/h (1 Bft) O 90 0 min 0 UV-I 0 W/m 9,7 km/h (2 Bft)
16.11.2010 22:50 5,3 C 89 % 1019,9 hPa 0,0 mm 1,6 km/h (1 Bft) O 90 0 min 0 UV-I 0 W/m 9,7 km/h (2 Bft)
16.11.2010 23:00 5,3 C 89 % 1019,9 hPa 0,0 mm 1,6 km/h (1 Bft) O 90 0 min 0 UV-I 0 W/m 4,8 km/h (1 Bft)
16.11.2010 23:10 5,3 C 89 % 1019,8 hPa 0,0 mm 1,6 km/h (1 Bft) O 90 0 min 0 UV-I 0 W/m 6,4 km/h (2 Bft)
16.11.2010 23:20 5,4 C 89 % 1019,7 hPa 0,0 mm 1,6 km/h (1 Bft) O-NO 67 0 min 0 UV-I 0 W/m 8,0 km/h (2 Bft)
16.11.2010 23:30 5,4 C 89 % 1019,7 hPa 0,0 mm 1,6 km/h (1 Bft) O-NO 67 0 min 0 UV-I 0 W/m 4,8 km/h (1 Bft)
16.11.2010 23:40 5,5 C 89 % 1019,5 hPa 0,0 mm 0,0 km/h (0 Bft) O-NO 67 0 min 0 UV-I 0 W/m 4,8 km/h (1 Bft)
16.11.2010 23:50 5,6 C 88 % 1019,5 hPa 0,0 mm 0,0 km/h (0 Bft) NO 45 0 min 0 UV-I 0 W/m 8,0 km/h (2 Bft)
_ Min-Zeit 07:50 00:00 00:00 - 00:00 - - - - - 00:00
Minimum _ 2,8 C 86 % 1018,0 hPa - 0,0 km/h (0 Bft) - - - - - 0,0 km/h (0 Bft)
_ Max-Zeit 16:00 11:50 10:40 00:00 17:50 - - 12:20 12:30 12:30 16:40
Maximum _ 6,5 C 97 % 1021,9 hPa 0,0 mm 3,2 km/h
N-NO (1 Bft)
- - 10 min 1 UV-I 227 W/m 9,7 km/h
N (2 Bft)
Durchschnitt _ 5,1 C 89 % 1020,4 hPa #0,0 mm 0,4 km/h (0 Bft) N - #20 min. 1 UV-I 67 W/m 3,1 km/h (1 Bft)